DW7888 Weather Reports


time (UTC)temp
C
wind
direction
speed
KPH
gust
KPH
rain 1hr
cm
rain 24hr
cm
rain mn
cm
humidity
%
barometer
mb
20260904172512 34 31 0.0 8.0 0.00 0.00 0.00 58 1014.4
20260904172014 34 324 1.6 6.4 0.00 0.00 0.00 58 1014.4
20260904171532 34 327 1.6 8.0 0.00 0.00 0.00 57 1014.4
20260904171012 34 44 1.6 9.7 0.00 0.00 0.00 57 1014.4
20260904170513 33 331 3.2 9.7 0.00 0.00 0.00 59 1014.4
20260904170044 35 48 1.6 8.0 0.00 0.00 0.00 56 1014.4
20260904165514 34 305 3.2 8.0 0.00 0.00 0.00 59 1014.3
20260904165019 34 13 1.6 8.0 0.00 0.00 0.00 56 1014.3
20260904164535 33 346 1.6 12.9 0.00 0.00 0.00 58 1014.4
20260904164015 33 37 1.6 12.9 0.00 0.00 0.00 58 1014.4
20260904163515 34 336 1.6 9.7 0.00 0.00 0.00 57 1014.5
20260904163032 34 352 1.6 9.7 0.00 0.00 0.00 58 1014.5
20260904162517 35 35 1.6 4.8 0.00 0.00 0.00 58 1014.6
20260904162014 33 181 1.6 4.8 0.00 0.00 0.00 60 1014.7
20260904161535 34 339 1.6 9.7 0.00 0.00 0.00 58 1014.7
20260904161013 33 347 1.6 9.7 0.00 0.00 0.00 61 1014.7
20260904160519 33 59 1.6 8.0 0.00 0.00 0.00 61 1014.9
20260904160033 33 69 3.2 14.5 0.00 0.00 0.00 61 1014.9
20260904155513 33 333 3.2 14.5 0.00 0.00 0.00 61 1015.1
20260904155017 33 58 3.2 9.7 0.00 0.00 0.00 62 1015.0
20260904154503 33 11 1.6 9.7 0.00 0.00 0.00 61 1015.0
20260904154002 33 5 1.6 14.5 0.00 0.00 0.00 61 1015.0
20260904153503 33 330 4.8 14.5 0.00 0.00 0.00 61 1015.1
20260904153005 33 5 3.2 8.0 0.00 0.00 0.00 62 1015.1
20260904152504 32 344 3.2 8.0 0.00 0.00 0.00 62 1015.1
20260904152002 32 57 3.2 6.4 0.00 0.00 0.00 64 1015.0
20260904151504 32 332 1.6 9.7 0.00 0.00 0.00 65 1015.0
20260904151003 32 17 3.2 9.7 0.00 0.00 0.00 65 1014.9
20260904150502 32 31 3.2 8.0 0.00 0.00 0.00 65 1014.9
20260904150014 32 5 3.2 8.0 0.00 0.00 0.00 67 1014.9
20260904145503 32 5 1.6 9.7 0.00 0.00 0.00 67 1014.9
20260904145004 32 343 0.0 9.7 0.00 0.00 0.00 68 1014.8
20260904144503 32 9 1.6 8.0 0.00 0.00 0.00 69 1014.9
20260904144007 32 331 3.2 8.0 0.00 0.00 0.00 68 1014.8
20260904143509 31 162 0.0 4.8 0.00 0.00 0.00 70 1014.7
20260904143009 31 360 0.0 4.8 0.00 0.00 0.00 71 1014.8
20260904142504 31 5 1.6 6.4 0.00 0.00 0.00 71 1014.7
20260904142004 30 16 1.6 6.4 0.00 0.00 0.00 72 1014.6
20260904141506 30 12 0.0 4.8 0.00 0.00 0.00 73 1014.6
20260904141006 30 28 0.0 9.7 0.00 0.00 0.00 72 1014.7
20260904140503 30 88 0.0 9.7 0.00 0.00 0.00 73 1014.6
20260904140004 30 101 0.0 4.8 0.00 0.00 0.00 73 1014.6
20260904135503 30 83 0.0 4.8 0.00 0.00 0.00 75 1014.6
20260904135005 29 18 1.6 4.8 0.00 0.00 0.00 76 1014.4
20260904134505 29 87 0.0 4.8 0.00 0.00 0.00 76 1014.4
20260904134001 28 348 3.2 4.8 0.00 0.00 0.00 76 1014.4
20260904133502 28 11 1.6 6.4 0.00 0.00 0.00 77 1014.4
20260904133009 28 360 1.6 6.4 0.00 0.00 0.00 77 1014.4
20260904132508 28 319 3.2 6.4 0.00 0.00 0.00 77 1014.3
20260904132007 28 21 0.0 4.8 0.00 0.00 0.00 78 1014.4
20260904131507 28 21 0.0 4.8 0.00 0.00 0.00 79 1014.4
20260904131003 28 18 0.0 4.8 0.00 0.00 0.00 79 1014.5
20260904130506 27 151 0.0 6.4 0.00 0.00 0.00 80 1014.5
20260904130008 27 5 0.0 6.4 0.00 0.00 0.00 80 1014.6
20260904125504 27 355 1.6 6.4 0.00 0.00 0.00 81 1014.7
20260904125005 27 5 0.0 4.8 0.00 0.00 0.00 81 1014.6
20260904124509 27 26 0.0 4.8 0.00 0.00 0.00 81 1014.7
20260904124007 27 41 0.0 4.8 0.00 0.00 0.00 81 1014.6
20260904123506 27 194 0.0 4.8 0.00 0.00 0.00 83 1014.6
20260904123007 26 186 1.6 4.8 0.00 0.00 0.00 83 1014.7
20260904122508 26 84 0.0 4.8 0.00 0.00 0.00 83 1014.7
20260904122006 26 13 0.0 3.2 0.00 0.00 0.00 83 1014.9
20260904121509 26 349 0.0 3.2 0.00 0.00 0.00 84 1014.9
20260904121006 26 355 0.0 0.0 0.00 0.00 0.00 85 1014.8
20260904120507 25 56 0.0 3.2 0.00 0.00 0.00 86 1014.7
20260904120012 25 101 0.0 4.8 0.00 0.00 0.00 88 1014.7
20260904115508 25 116 0.0 4.8 0.00 0.00 0.00 89 1014.7
20260904115008 24 50 0.0 3.2 0.00 0.00 0.00 91 1014.6
20260904114515 24 50 0.0 4.8 0.00 0.00 0.00 92 1014.7
20260904114008 23 50 0.0 4.8 0.00 0.00 0.00 93 1014.6
20260904113505 23 5 0.0 0.0 0.00 0.00 0.00 94 1014.6
20260904113022 23 350 0.0 0.0 0.00 0.00 0.00 94 1014.5
20260904112507 23 350 0.0 0.0 0.00 0.00 0.00 94 1014.6
20260904112009 23 350 0.0 0.0 0.00 0.00 0.00 94 1014.7
20260904111510 23 350 0.0 0.0 0.00 0.00 0.00 93 1014.6
20260904111008 23 350 0.0 0.0 0.00 0.00 0.00 93 1014.6
20260904110506 23 350 0.0 0.0 0.00 0.00 0.00 93 1014.6
20260904110012 23 350 0.0 0.0 0.00 0.00 0.00 93 1014.6
20260904105510 23 350 0.0 0.0 0.00 0.00 0.00 93 1014.6
20260904105008 23 350 0.0 0.0 0.00 0.00 0.00 93 1014.6
20260904104510 24 350 0.0 0.0 0.00 0.00 0.00 93 1014.6
20260904104010 24 350 0.0 0.0 0.00 0.00 0.00 92 1014.5
20260904103509 24 350 0.0 0.0 0.00 0.00 0.00 92 1014.4
20260904103012 24 350 0.0 0.0 0.00 0.00 0.00 92 1014.4
20260904102507 24 350 0.0 0.0 0.00 0.00 0.00 92 1014.4
20260904102008 24 350 0.0 0.0 0.00 0.00 0.00 92 1014.3
20260904101512 24 350 0.0 0.0 0.00 0.00 0.00 92 1014.4
20260904101007 24 350 0.0 0.0 0.00 0.00 0.00 92 1014.4
20260904100507 24 350 0.0 0.0 0.00 0.00 0.00 92 1014.4
20260904100014 24 350 0.0 0.0 0.00 0.00 0.00 92 1014.4
20260904095509 24 350 0.0 0.0 0.00 0.00 0.00 92 1014.4
20260904095012 24 350 0.0 0.0 0.00 0.00 0.00 92 1014.3
20260904094525 24 350 0.0 0.0 0.00 0.00 0.00 92 1014.5
20260904094011 24 350 0.0 0.0 0.00 0.00 0.00 91 1014.4
20260904093509 24 350 0.0 0.0 0.00 0.00 0.00 91 1014.5
20260904093013 24 350 0.0 0.0 0.00 0.00 0.00 91 1014.6
20260904092510 25 350 0.0 0.0 0.00 0.00 0.00 91 1014.6
20260904092010 25 350 0.0 0.0 0.00 0.00 0.00 90 1014.7
20260904091516 25 350 0.0 0.0 0.00 0.00 0.00 90 1014.7
20260904091013 25 350 0.0 0.0 0.00 0.00 0.00 90 1014.9
20260904090509 25 350 0.0 0.0 0.00 0.00 0.00 90 1014.8
20260904090017 25 350 0.0 0.0 0.00 0.00 0.00 89 1014.7
20260904085515 25 350 0.0 0.0 0.00 0.00 0.00 89 1014.7
20260904085009 25 350 0.0 0.0 0.00 0.00 0.00 89 1014.6
20260904084518 25 350 0.0 0.0 0.00 0.00 0.00 88 1014.6
20260904084012 25 350 0.0 4.8 0.00 0.00 0.00 88 1014.5
20260904083512 25 350 0.0 4.8 0.00 0.00 0.00 87 1014.5
20260904083018 25 348 0.0 4.8 0.00 0.00 0.00 87 1014.4
20260904082512 25 306 0.0 3.2 0.00 0.00 0.00 88 1014.3
20260904082010 25 120 0.0 3.2 0.00 0.00 0.00 87 1014.2
20260904081519 25 114 0.0 0.0 0.00 0.00 0.00 87 1014.2
20260904081012 25 114 0.0 0.0 0.00 0.00 0.00 87 1014.4
20260904080511 25 114 0.0 3.2 0.00 0.00 0.00 87 1014.2
20260904080020 25 114 0.0 3.2 0.00 0.00 0.00 87 1014.3
20260904075515 26 114 0.0 3.2 0.00 0.00 0.00 86 1014.2
20260904075014 26 123 0.0 1.6 0.00 0.00 0.00 87 1014.1
20260904074517 26 123 0.0 1.6 0.00 0.00 0.00 86 1014.0
20260904074017 26 123 0.0 1.6 0.00 0.00 0.00 86 1013.8
20260904073516 26 123 0.0 1.6 0.00 0.00 0.00 86 1013.9
20260904073020 26 156 0.0 0.0 0.00 0.00 0.00 86 1013.9
20260904072511 26 155 0.0 0.0 0.00 0.00 0.00 86 1013.9
20260904072013 26 155 0.0 0.0 0.00 0.00 0.00 86 1013.9
20260904071521 26 156 0.0 0.0 0.00 0.00 0.00 86 1013.9
20260904071015 26 155 0.0 0.0 0.00 0.00 0.00 85 1014.0
20260904070517 26 63 0.0 0.0 0.00 0.00 0.00 85 1014.1
20260904070023 26 63 0.0 0.0 0.00 0.00 0.00 84 1014.1
20260904065518 26 63 0.0 0.0 0.00 0.00 0.00 84 1014.2
20260904065011 27 63 0.0 0.0 0.00 0.00 0.00 83 1014.3
20260904064528 27 63 0.0 1.6 0.00 0.00 0.00 82 1014.1
20260904064003 27 63 0.0 3.2 0.00 0.00 0.00 82 1014.2
20260904063510 27 115 0.0 3.2 0.00 0.00 0.00 81 1013.9
20260904063027 27 136 0.0 3.2 0.00 0.00 0.00 81 1013.9
20260904062506 27 109 0.0 3.2 0.00 0.00 0.00 81 1014.2
20260904062012 27 65 0.0 3.2 0.00 0.00 0.00 80 1014.8
20260904061535 27 5 0.0 4.8 0.00 0.00 0.00 80 1014.8
20260904061008 27 126 0.0 14.5 0.00 0.00 0.00 80 1014.4
20260904060514 27 310 3.2 14.5 0.00 0.00 0.00 80 1015.2
20260904060037 27 293 3.2 8.0 0.00 0.00 0.00 78 1015.3
20260904055506 28 348 0.0 4.8 0.00 0.00 0.00 77 1014.5
20260904055015 28 350 0.0 4.8 0.00 0.00 0.00 77 1014.3
20260904054538 28 5 0.0 3.2 0.00 0.00 0.00 76 1014.2
20260904054006 28 5 0.0 8.0 0.00 0.00 0.00 76 1014.2
20260904053514 28 5 0.0 8.0 0.00 0.00 0.00 75 1014.2
20260904053023 28 355 0.0 8.0 0.00 0.00 0.00 74 1014.1
20260904052510 28 115 0.0 6.4 0.00 0.00 0.00 74 1014.1
20260904052012 28 165 1.6 9.7 0.00 0.00 0.00 74 1014.2
20260904051504 28 58 0.0 9.7 0.00 0.00 0.00 75 1014.2
20260904051014 28 94 0.0 6.4 0.00 0.00 0.00 74 1014.3
20260904050516 28 187 0.0 4.8 0.00 0.00 0.00 74 1014.4
20260904050006 29 97 0.0 4.8 0.00 0.00 0.00 74 1014.5
20260904045511 29 179 1.6 6.4 0.00 0.00 0.00 74 1014.5
20260904045019 29 165 0.0 6.4 0.00 0.00 0.00 74 1014.5
20260904044509 29 169 0.0 8.0 0.00 0.00 0.00 74 1014.5
20260904044008 28 211 1.6 11.3 0.00 0.00 0.00 74 1014.5
20260904043516 28 184 0.0 11.3 0.00 0.00 0.00 75 1014.7
20260904043010 28 109 0.0 4.8 0.00 0.00 0.00 75 1014.6
20260904042512 28 168 0.0 4.8 0.00 0.00 0.00 75 1014.6
20260904042014 28 146 0.0 4.8 0.00 0.00 0.00 76 1014.5
20260904041514 28 139 1.6 8.0 0.00 0.00 0.00 76 1014.7
20260904041011 28 146 1.6 8.0 0.00 0.00 0.00 76 1014.6
20260904040513 28 164 0.0 6.4 0.00 0.00 0.00 76 1014.6
20260904040021 28 140 3.2 6.4 0.00 0.00 0.00 76 1014.6
20260904035514 28 154 0.0 8.0 0.00 0.00 0.00 76 1014.6
20260904035021 28 149 3.2 9.7 0.00 0.00 0.00 77 1014.5
20260904034513 28 166 1.6 9.7 0.00 0.00 0.00 77 1014.7
20260904034010 28 159 1.6 8.0 0.00 0.00 0.00 77 1014.8
20260904033516 28 126 1.6 8.0 0.00 0.00 0.00 77 1015.0
20260904033009 28 168 0.0 6.4 0.00 0.00 0.00 77 1015.2
20260904032511 28 192 0.0 3.2 0.00 0.00 0.00 77 1015.2
20260904032013 28 181 0.0 8.0 0.00 0.00 0.00 77 1015.0
20260904031520 28 164 0.0 8.0 0.00 0.00 0.00 77 1015.0
20260904031014 28 134 1.6 8.0 0.00 0.00 0.00 77 1014.9
20260904030515 28 137 1.6 8.0 0.00 0.00 0.00 77 1014.9
20260904030015 28 108 3.2 8.0 0.00 0.00 0.00 78 1015.0
20260904025513 28 120 0.0 8.0 0.00 0.00 0.00 78 1014.9
20260904025017 28 107 0.0 6.4 0.00 0.00 0.00 79 1014.8
20260904024513 28 125 1.6 9.7 0.00 0.00 0.00 79 1014.7
20260904024014 28 111 1.6 9.7 0.00 0.00 0.00 80 1014.7
20260904023517 28 142 0.0 6.4 0.00 0.00 0.00 80 1014.8
20260904023018 28 161 1.6 6.4 0.00 0.00 0.00 81 1014.7
20260904022518 28 182 1.6 8.0 0.00 0.00 0.00 82 1014.7
20260904022018 27 139 1.6 9.7 0.00 0.00 0.00 83 1014.7
20260904021527 27 143 0.0 9.7 0.00 0.00 0.00 84 1014.6
20260904021014 27 131 0.0 8.0 0.00 0.00 0.00 86 1014.7
20260904020521 26 187 0.0 3.2 0.00 0.00 0.00 86 1014.7
20260904020018 26 148 0.0 0.0 0.00 0.00 0.00 86 1014.8
20260904015515 26 148 0.0 0.0 0.00 0.00 0.00 85 1014.9
20260904015021 27 148 0.0 0.0 0.00 0.00 0.00 85 1015.0
20260904014517 27 148 0.0 0.0 0.00 0.00 0.00 85 1015.1
20260904014017 27 148 0.0 0.0 0.00 0.00 0.00 84 1015.1
20260904013516 27 148 0.0 0.0 0.00 0.00 0.00 84 1015.2
20260904013020 27 148 0.0 0.0 0.00 0.00 0.00 84 1015.1
20260904012516 27 148 0.0 0.0 0.00 0.00 0.00 84 1015.2
20260904012016 27 148 0.0 0.0 0.00 0.00 0.00 83 1015.3
20260904011519 27 148 0.0 0.0 0.00 0.00 0.00 83 1015.3
20260904011016 27 148 0.0 0.0 0.00 0.00 0.00 83 1015.3
20260904010519 27 148 0.0 0.0 0.00 0.00 0.00 82 1015.4
20260904010023 27 148 0.0 0.0 0.00 0.00 0.00 82 1015.4
20260904005516 27 148 0.0 0.0 0.00 0.00 0.00 82 1015.4
20260904005016 28 148 0.0 0.0 0.00 0.00 0.00 82 1015.4
20260904004526 28 148 0.0 0.0 0.00 0.00 0.00 81 1015.4
20260904004004 28 148 0.0 0.0 0.00 0.00 0.00 81 1015.3
20260904003510 28 148 0.0 0.0 0.00 0.00 0.00 81 1015.3
20260904003027 28 148 0.0 0.0 0.00 0.00 0.00 80 1015.3
20260904002507 28 148 0.0 0.0 0.00 0.00 0.00 80 1015.2
20260904002010 28 148 0.0 0.0 0.00 0.00 0.00 80 1015.1
20260904001503 28 148 0.0 1.6 0.00 0.00 0.00 80 1015.0
20260904001008 28 148 0.0 1.6 0.00 0.00 0.00 79 1015.0
20260904000509 29 148 0.0 0.0 0.00 0.00 0.00 78 1014.9
20260904000003 29 148 0.0 0.0 0.00 0.00 0.00 78 1014.6
20260903235505 29 148 0.0 1.6 0.00 0.00 0.00 78 1014.6
20260903235011 30 148 0.0 1.6 0.00 0.00 0.00 77 1014.5
20260903234504 30 148 0.0 0.0 0.00 0.00 0.00 76 1014.4
20260903234005 30 148 0.0 0.0 0.00 0.00 0.00 76 1014.5
20260903233514 30 148 0.0 0.0 0.00 0.00 0.00 75 1014.4
20260903233003 30 148 0.0 0.0 0.00 0.00 0.00 75 1014.3
20260903232506 31 148 0.0 0.0 0.00 0.00 0.00 74 1014.4
20260903232010 31 148 0.0 0.0 0.00 0.00 0.00 74 1014.4
20260903231503 31 148 0.0 0.0 0.00 0.00 0.00 73 1014.4
20260903231005 31 148 0.0 0.0 0.00 0.00 0.00 73 1014.3
20260903230514 31 148 0.0 0.0 0.00 0.00 0.00 73 1014.2
20260903230003 31 148 0.0 0.0 0.00 0.00 0.00 72 1014.2
20260903225509 31 148 0.0 0.0 0.00 0.00 0.00 72 1014.3
20260903225013 32 148 0.0 0.0 0.00 0.00 0.00 71 1014.3
20260903224503 32 148 0.0 0.0 0.00 0.00 0.00 71 1014.2
20260903224012 32 148 0.0 0.0 0.00 0.00 0.00 70 1014.1
20260903223515 32 148 0.0 0.0 0.00 0.00 0.00 69 1014.2
20260903223003 32 148 0.0 0.0 0.00 0.00 0.00 67 1014.3
20260903222511 32 148 0.0 0.0 0.00 0.00 0.00 68 1014.2
20260903222014 32 148 0.0 0.0 0.00 0.00 0.00 68 1014.1
20260903221504 32 148 0.0 0.0 0.00 0.00 0.00 68 1014.2
20260903221009 32 148 0.0 0.0 0.00 0.00 0.00 66 1014.3
20260903220515 33 148 0.0 0.0 0.00 0.00 0.00 66 1014.3
20260903220003 33 148 0.0 0.0 0.00 0.00 0.00 63 1014.4
20260903215514 33 148 0.0 0.0 0.00 0.00 0.00 61 1014.5
20260903215013 33 148 0.0 0.0 0.00 0.00 0.00 60 1014.4
20260903214510 33 148 0.0 0.0 0.00 0.00 0.00 58 1014.4
20260903214010 34 148 0.0 0.0 0.00 0.00 0.00 57 1014.4
20260903213518 34 148 0.0 0.0 0.00 0.00 0.00 56 1014.3
20260903213007 34 148 0.0 0.0 0.00 0.00 0.00 54 1014.3
20260903212510 35 148 0.0 0.0 0.00 0.00 0.00 54 1014.3
20260903212016 35 148 0.0 0.0 0.00 0.00 0.00 52 1014.3
20260903211507 35 103 0.0 3.2 0.00 0.00 0.00 52 1014.3
20260903211012 35 152 0.0 3.2 0.00 0.00 0.00 50 1014.4
20260903210518 35 199 0.0 1.6 0.00 0.00 0.00 52 1014.5
20260903210010 35 63 0.0 3.2 0.00 0.00 0.00 50 1014.6
20260903205514 35 5 0.0 3.2 0.00 0.00 0.00 52 1014.5
20260903205020 35 130 0.0 4.8 0.00 0.00 0.00 55 1014.5
20260903204511 35 5 0.0 9.7 0.00 0.00 0.00 55 1014.6
20260903204012 35 339 3.2 8.0 0.00 0.00 0.00 55 1014.7
20260903203514 35 318 0.0 3.2 0.00 0.00 0.00 55 1014.7
20260903203010 35 43 0.0 3.2 0.00 0.00 0.00 54 1014.7
20260903202511 35 349 0.0 6.4 0.00 0.00 0.00 55 1014.8
20260903202018 35 32 1.6 6.4 0.00 0.00 0.00 56 1014.9
20260903201513 35 329 0.0 6.4 0.00 0.00 0.00 56 1015.1
20260903201019 35 341 0.0 6.4 0.00 0.00 0.00 55 1015.1
20260903200517 35 9 1.6 4.8 0.00 0.00 0.00 56 1015.1
20260903200012 35 335 0.0 4.8 0.00 0.00 0.00 55 1015.3
20260903195515 34 19 1.6 4.8 0.00 0.00 0.00 56 1015.4
20260903195019 34 336 0.0 4.8 0.00 0.00 0.00 57 1015.4
20260903194514 35 346 1.6 6.4 0.00 0.00 0.00 57 1015.4
20260903194020 35 355 0.0 6.4 0.00 0.00 0.00 57 1015.5
20260903193517 35 28 3.2 6.4 0.00 0.00 0.00 56 1015.5
20260903193018 35 296 0.0 3.2 0.00 0.00 0.00 56 1015.6
20260903192513 35 355 0.0 4.8 0.00 0.00 0.00 55 1015.5
20260903192017 35 286 0.0 6.4 0.00 0.00 0.00 52 1015.6
20260903191540 35 340 0.0 6.4 0.00 0.00 0.00 52 1015.6
20260903191017 35 335 0.0 4.8 0.00 0.00 0.00 52 1015.7
20260903190518 35 304 0.0 4.8 0.00 0.00 0.00 54 1015.8
20260903190016 35 116 0.0 6.4 0.00 0.00 0.00 55 1015.9
20260903185513 35 340 0.0 6.4 0.00 0.00 0.00 56 1016.0
20260903185017 35 355 1.6 6.4 0.00 0.00 0.00 56 1016.1
20260903184520 35 317 0.0 4.8 0.00 0.00 0.00 56 1016.1
20260903184016 35 329 0.0 4.8 0.00 0.00 0.00 54 1016.2
20260903183508 35 32 0.0 4.8 0.00 0.00 0.00 61 1016.2
20260903183027 35 355 0.0 4.8 0.00 0.00 0.00 57 1016.2
20260903182514 35 30 0.0 8.0 0.00 0.00 0.00 59 1016.2
20260903182006 34 301 0.0 8.0 0.00 0.00 0.00 57 1016.2
20260903181519 34 349 0.0 4.8 0.00 0.00 0.00 59 1016.4
20260903181014 35 180 0.0 4.8 0.00 0.00 0.00 59 1016.6
20260903180506 34 143 0.0 6.4 0.00 0.00 0.00 60 1016.7
20260903180031 33 30 0.0 6.4 0.00 0.00 0.00 60 1016.8
20260903175517 33 9 1.6 6.4 0.00 0.00 0.00 60 1016.8
20260903175007 34 319 0.0 4.8 0.00 0.00 0.00 59 1016.7
20260903174525 33 340 1.6 4.8 0.00 0.00 0.00 63 1016.8
20260903174015 33 336 1.6 4.8 0.00 0.00 0.00 63 1016.7
20260903173511 33 301 1.6 8.0 0.00 0.00 0.00 63 1016.8
20260903173025 33 5 3.2 8.0 0.00 0.00 0.00 63 1016.8